Regional Weather Roundup
Issued by NWS Green Bay, WI

Home | Current Version | Previous Version | Graphics & Text | Print | Product List | Glossary Off
Versions: 1 2 3 4 5 6 7 8 9 10 11 12 13 14 15 16 17 18 19 20 21 22 23 24 25 26 27 28 29 30 31 32 33 34 35 36 37 38 39 40 41 42 43 44 45 46 47 48 49 50

000
ASUS43 KGRB 231659
RWRGRB

NORTH-CENTRAL AND NORTHEAST WISCONSIN REGIONAL WEATHER ROUNDUP
NATIONAL WEATHER SERVICE GREEN BAY WI
1200 PM CDT SAT AUG 23 2014

WIZ005-009-010>012-018-019-231800-
NORTH CENTRAL WISCONSIN

CITY           SKY/WX    TMP DP  RH WIND       PRES   REMARKS
IRONWOOD       NOT AVBL
MANITOWISH WTR NOT AVBL
ARBOR VITAE    NOT AVBL
EAGLE RIVER    NOT AVBL
LAND O LAKES   NOT AVBL
RHINELANDER    CLOUDY    70  68  93 E7        30.07S
PHILLIPS       CLOUDY    73  69  85 E6        30.03F
ANTIGO         NOT AVBL
TOMAHAWK       NOT AVBL
MERRILL        NOT AVBL
$$

WIZ013-073-231800-
NORTHEAST WISCONSIN

CITY           SKY/WX    TMP DP  RH WIND       PRES   REMARKS
IRON MOUNTAIN  CLOUDY    69  67  93 E7        30.06R FOG
MARINETTE      CLOUDY    72  64  78 E7        30.04S
$$

WIZ017-030-035>037-045-231800-
CENTRAL WISCONSIN

CITY           SKY/WX    TMP DP  RH WIND       PRES   REMARKS
MEDFORD        NOT AVBL
WAUSAU         CLOUDY    73  69  87 E8        30.02S FOG
MOSINEE        CLOUDY    72  72 100 E7        30.04S FOG
MARSHFIELD     CLOUDY    73  71  93 SE9       30.02S FOG
WISC RAPIDS    CLOUDY    73  71  93 E7        30.03S FOG
STEVENS POINT  NOT AVBL
WAUPACA        NOT AVBL
SHAWANO        CLOUDY    75  71  87 E5        30.04S FOG
CLINTONVILLE   NOT AVBL
$$

WIZ038-039-048-051-231800-
FOX VALLEY

CITY           SKY/WX    TMP DP  RH WIND       PRES   REMARKS
NWS GREEN BAY  PTSUNNY   78  71  79 SE9       30.03S
APPLETON       CLOUDY    75  72  88 SE9       30.03F FOG
OSHKOSH        CLOUDY    76  73  91 E5        30.03R
FOND DU LAC    CLOUDY    77  72  84 SE9       30.03S
$$

WIZ022-050-052-231800-
EAST CENTRAL WISCONSIN

CITY           SKY/WX    TMP DP  RH WIND       PRES   REMARKS
STURGEON BAY   CLOUDY    73  66  78 SE7       30.06R
MANITOWOC      NOT AVBL
SHEBOYGAN      CLOUDY    73  68  84 SE6       30.05R
$$

LMZ563-521-522-541>543-231800-
LAKESHORE

STATION/POSITION TIME  TEMP    WIND        PRES    VSBY  WAVE
                       AIR SEA DIR/SP/G                  HT/PER
                 (UTC) (F)     (DEG/KT/KT) (MB)    (MI)  (FT/S)
SHEBOYGAN LKSHOR 1600   68 66  100/  5/  5 1017.5R
KEWAUNEE LKSHORE 1600   69      90/  3/  4 1016.7F
NORTHPORT PIER   1600   68     140/  5/  7 1018.3S
N MID LAKE BUOY  1600   67 66   90/ 10/ 12 1017.6R         1
SISTER BAY LKSHO 1600   78     140/ 10/ 13   N/A
CHAMBERS ISLAND  1600   71      90/  3/  5 1017.9S
MENOMINEE LKSHOR 1600   70     110/  3/  5 1018.1F
$$


USA.gov is the U.S. government's official web portal to all federal, state and local government web resources and services.